| time (UTC) | temp F | wind direction | speed knots | gust knots | rain 1hr in | rain 24hr in | rain mn in | humidity % | barometer mb |
| 20260906175903 | 79 | 145 | 6.1 | 13.0 | 0.00 | 0.00 | 0.00 | 58 | 1020.4 |
| 20260906175358 | 80 | 158 | 5.2 | 13.0 | 0.00 | 0.00 | 0.00 | 57 | 1020.4 |
| 20260906174857 | 79 | 193 | 7.0 | 13.0 | 0.00 | 0.00 | 0.00 | 59 | 1020.4 |
| 20260906174356 | 79 | 146 | 7.0 | 13.0 | 0.00 | 0.00 | 0.00 | 58 | 1020.4 |
| 20260906173851 | 79 | 133 | 7.0 | 14.8 | 0.00 | 0.00 | 0.00 | 59 | 1020.4 |
| 20260906173347 | 79 | 148 | 7.0 | 14.8 | 0.00 | 0.00 | 0.00 | 58 | 1020.4 |
| 20260906172846 | 79 | 179 | 5.2 | 13.0 | 0.00 | 0.00 | 0.00 | 58 | 1020.4 |
| 20260906172343 | 79 | 123 | 5.2 | 10.4 | 0.00 | 0.00 | 0.00 | 60 | 1020.4 |
| 20260906171837 | 79 | 138 | 7.0 | 13.9 | 0.00 | 0.00 | 0.00 | 59 | 1020.8 |
| 20260906171332 | 79 | 145 | 5.2 | 13.9 | 0.00 | 0.00 | 0.00 | 59 | 1020.4 |
| 20260906170828 | 79 | 145 | 4.3 | 10.4 | 0.00 | 0.00 | 0.00 | 57 | 1020.4 |
| 20260906170324 | 78 | 192 | 4.3 | 10.4 | 0.00 | 0.00 | 0.00 | 63 | 1020.4 |
| 20260906165820 | 79 | 147 | 3.5 | 10.4 | 0.00 | 0.00 | 0.00 | 61 | 1020.8 |
| 20260906165319 | 78 | 195 | 3.5 | 9.6 | 0.00 | 0.00 | 0.00 | 64 | 1020.8 |
| 20260906164814 | 78 | 149 | 5.2 | 11.3 | 0.00 | 0.00 | 0.00 | 65 | 1020.8 |
| 20260906164314 | 77 | 157 | 4.3 | 11.3 | 0.00 | 0.00 | 0.00 | 66 | 1020.8 |
| 20260906163810 | 77 | 94 | 3.5 | 8.7 | 0.00 | 0.00 | 0.00 | 69 | 1020.8 |
| 20260906163306 | 77 | 148 | 4.3 | 8.7 | 0.00 | 0.00 | 0.00 | 70 | 1020.8 |
| 20260906162803 | 76 | 90 | 4.3 | 8.7 | 0.00 | 0.00 | 0.00 | 71 | 1021.1 |
| 20260906162305 | 76 | 121 | 4.3 | 10.4 | 0.00 | 0.00 | 0.00 | 72 | 1020.8 |
| 20260906161757 | 76 | 159 | 5.2 | 10.4 | 0.00 | 0.00 | 0.00 | 72 | 1021.1 |
| 20260906161256 | 76 | 165 | 4.3 | 10.4 | 0.00 | 0.00 | 0.00 | 72 | 1021.1 |
| 20260906160755 | 76 | 103 | 4.3 | 9.6 | 0.00 | 0.00 | 0.00 | 75 | 1020.8 |
| 20260906160250 | 75 | 92 | 4.3 | 9.6 | 0.00 | 0.00 | 0.00 | 75 | 1021.1 |
| 20260906155747 | 75 | 128 | 4.3 | 9.6 | 0.00 | 0.00 | 0.00 | 76 | 1021.1 |
| 20260906155242 | 75 | 170 | 4.3 | 9.6 | 0.00 | 0.00 | 0.00 | 76 | 1021.1 |
| 20260906154738 | 74 | 163 | 5.2 | 10.4 | 0.00 | 0.00 | 0.00 | 78 | 1021.1 |
| 20260906154233 | 74 | 182 | 6.1 | 12.2 | 0.00 | 0.00 | 0.00 | 78 | 1021.1 |
| 20260906153731 | 73 | 148 | 6.1 | 12.2 | 0.00 | 0.00 | 0.00 | 79 | 1021.1 |
| 20260906153225 | 73 | 136 | 5.2 | 11.3 | 0.00 | 0.00 | 0.00 | 81 | 1020.8 |
| 20260906152720 | 73 | 182 | 6.1 | 11.3 | 0.00 | 0.00 | 0.00 | 80 | 1021.1 |
| 20260906152215 | 73 | 173 | 6.1 | 12.2 | 0.00 | 0.00 | 0.00 | 81 | 1021.1 |
| 20260906151709 | 73 | 155 | 6.1 | 12.2 | 0.00 | 0.00 | 0.00 | 81 | 1020.8 |
| 20260906151206 | 72 | 92 | 5.2 | 11.3 | 0.00 | 0.00 | 0.00 | 83 | 1021.1 |
| 20260906150701 | 72 | 196 | 5.2 | 11.3 | 0.00 | 0.00 | 0.00 | 83 | 1021.1 |
| 20260906150156 | 72 | 146 | 6.1 | 12.2 | 0.00 | 0.00 | 0.00 | 83 | 1021.1 |
| 20260906145654 | 71 | 165 | 6.1 | 12.2 | 0.00 | 0.00 | 0.00 | 83 | 1020.8 |
| 20260906145149 | 71 | 126 | 6.1 | 12.2 | 0.00 | 0.00 | 0.00 | 84 | 1020.8 |
| 20260906144648 | 71 | 152 | 6.1 | 12.2 | 0.00 | 0.00 | 0.00 | 84 | 1020.8 |
| 20260906144143 | 71 | 148 | 5.2 | 10.4 | 0.00 | 0.00 | 0.00 | 84 | 1020.8 |
| 20260906143643 | 71 | 111 | 4.3 | 7.0 | 0.00 | 0.00 | 0.00 | 85 | 1020.8 |
| 20260906143141 | 71 | 142 | 3.5 | 6.1 | 0.00 | 0.00 | 0.00 | 86 | 1021.1 |
| 20260906142640 | 70 | 165 | 3.5 | 7.8 | 0.00 | 0.00 | 0.00 | 87 | 1021.1 |
| 20260906142135 | 69 | 153 | 4.3 | 9.6 | 0.00 | 0.00 | 0.00 | 88 | 1020.8 |
| 20260906141634 | 69 | 148 | 4.3 | 9.6 | 0.00 | 0.00 | 0.00 | 88 | 1020.8 |
| 20260906141129 | 69 | 161 | 3.5 | 7.0 | 0.00 | 0.00 | 0.00 | 89 | 1020.8 |
| 20260906140628 | 69 | 169 | 4.3 | 7.8 | 0.00 | 0.00 | 0.00 | 92 | 1020.8 |
| 20260906140123 | 68 | 155 | 4.3 | 8.7 | 0.00 | 0.00 | 0.00 | 94 | 1020.8 |
| 20260906135620 | 68 | 142 | 4.3 | 8.7 | 0.00 | 0.00 | 0.00 | 93 | 1020.8 |
| 20260906135116 | 68 | 175 | 4.3 | 7.8 | 0.00 | 0.00 | 0.00 | 94 | 1020.8 |
| 20260906134612 | 68 | 164 | 5.2 | 8.7 | 0.00 | 0.00 | 0.00 | 94 | 1021.1 |
| 20260906134107 | 68 | 178 | 5.2 | 8.7 | 0.00 | 0.00 | 0.00 | 94 | 1020.8 |
| 20260906133603 | 68 | 151 | 5.2 | 11.3 | 0.00 | 0.00 | 0.00 | 94 | 1021.1 |
| 20260906133057 | 68 | 154 | 5.2 | 11.3 | 0.00 | 0.00 | 0.00 | 94 | 1020.8 |
| 20260906132552 | 68 | 157 | 3.5 | 9.6 | 0.00 | 0.00 | 0.00 | 94 | 1020.8 |
| 20260906132048 | 68 | 157 | 3.5 | 7.0 | 0.00 | 0.00 | 0.00 | 95 | 1020.8 |
| 20260906131543 | 68 | 138 | 3.5 | 5.2 | 0.00 | 0.00 | 0.00 | 96 | 1020.4 |
| 20260906131038 | 67 | 163 | 2.6 | 5.2 | 0.00 | 0.00 | 0.00 | 96 | 1020.4 |
| 20260906130538 | 67 | 157 | 2.6 | 5.2 | 0.00 | 0.00 | 0.00 | 97 | 1020.1 |
| 20260906130033 | 67 | 137 | 1.7 | 3.5 | 0.00 | 0.00 | 0.00 | 97 | 1020.1 |
| 20260906125530 | 66 | 104 | 0.9 | 2.6 | 0.00 | 0.00 | 0.00 | 97 | 1020.4 |
| 20260906125025 | 66 | 90 | 1.7 | 3.5 | 0.00 | 0.00 | 0.00 | 97 | 1020.4 |
| 20260906124520 | 66 | 79 | 1.7 | 5.2 | 0.00 | 0.00 | 0.00 | 97 | 1020.4 |
| 20260906124015 | 66 | 74 | 1.7 | 5.2 | 0.00 | 0.00 | 0.00 | 96 | 1020.4 |
| 20260906123514 | 66 | 65 | 1.7 | 4.3 | 0.00 | 0.00 | 0.00 | 96 | 1020.4 |
| 20260906123010 | 66 | 149 | 1.7 | 4.3 | 0.00 | 0.00 | 0.00 | 96 | 1020.1 |
| 20260906122503 | 66 | 155 | 1.7 | 2.6 | 0.00 | 0.00 | 0.00 | 96 | 1020.1 |
| 20260906122000 | 66 | 155 | 1.7 | 4.3 | 0.00 | 0.00 | 0.00 | 96 | 1020.1 |
| 20260906121456 | 66 | 156 | 2.6 | 6.1 | 0.00 | 0.00 | 0.00 | 96 | 1020.1 |
| 20260906120952 | 66 | 155 | 2.6 | 6.1 | 0.00 | 0.00 | 0.00 | 96 | 1020.1 |
| 20260906120447 | 66 | 141 | 1.7 | 3.5 | 0.00 | 0.00 | 0.00 | 96 | 1020.1 |
| 20260906115943 | 66 | 119 | 1.7 | 5.2 | 0.00 | 0.00 | 0.00 | 96 | 1020.1 |
| 20260906115439 | 66 | 121 | 1.7 | 5.2 | 0.00 | 0.00 | 0.00 | 96 | 1020.1 |
| 20260906114938 | 66 | 87 | 1.7 | 3.5 | 0.00 | 0.00 | 0.00 | 96 | 1020.1 |
| 20260906114433 | 66 | 107 | 1.7 | 2.6 | 0.00 | 0.00 | 0.00 | 96 | 1020.1 |
| 20260906113929 | 66 | 107 | 1.7 | 5.2 | 0.00 | 0.00 | 0.00 | 96 | 1020.1 |
| 20260906113427 | 66 | 107 | 2.6 | 5.2 | 0.00 | 0.00 | 0.00 | 96 | 1020.1 |
| 20260906112923 | 66 | 60 | 2.6 | 5.2 | 0.00 | 0.00 | 0.00 | 96 | 1020.1 |
| 20260906112418 | 66 | 101 | 1.7 | 5.2 | 0.00 | 0.00 | 0.00 | 96 | 1020.1 |
| 20260906111914 | 66 | 92 | 1.7 | 3.5 | 0.00 | 0.00 | 0.00 | 95 | 1019.8 |
| 20260906111413 | 66 | 84 | 1.7 | 3.5 | 0.00 | 0.00 | 0.00 | 95 | 1019.8 |
| 20260906110908 | 66 | 81 | 1.7 | 3.5 | 0.00 | 0.00 | 0.00 | 95 | 1019.8 |
| 20260906110403 | 66 | 80 | 1.7 | 4.3 | 0.00 | 0.00 | 0.00 | 96 | 1019.8 |
| 20260906105903 | 66 | 79 | 1.7 | 4.3 | 0.00 | 0.00 | 0.00 | 96 | 1020.1 |
| 20260906105358 | 66 | 78 | 1.7 | 3.5 | 0.00 | 0.00 | 0.00 | 96 | 1020.1 |
| 20260906104854 | 66 | 105 | 1.7 | 3.5 | 0.00 | 0.00 | 0.00 | 96 | 1020.1 |
| 20260906104353 | 66 | 105 | 1.7 | 2.6 | 0.00 | 0.00 | 0.00 | 96 | 1020.1 |
| 20260906103852 | 66 | 107 | 1.7 | 2.6 | 0.00 | 0.00 | 0.00 | 96 | 1019.8 |
| 20260906103350 | 66 | 109 | 1.7 | 3.5 | 0.00 | 0.00 | 0.00 | 96 | 1019.8 |
| 20260906102846 | 66 | 109 | 1.7 | 3.5 | 0.00 | 0.00 | 0.00 | 96 | 1019.8 |
| 20260906102345 | 66 | 117 | 1.7 | 3.5 | 0.00 | 0.00 | 0.00 | 95 | 1019.4 |
| 20260906101840 | 66 | 109 | 2.6 | 3.5 | 0.00 | 0.00 | 0.00 | 95 | 1019.4 |
| 20260906101335 | 66 | 109 | 2.6 | 3.5 | 0.00 | 0.00 | 0.00 | 95 | 1019.4 |
| 20260906100831 | 66 | 123 | 1.7 | 3.5 | 0.00 | 0.00 | 0.00 | 95 | 1019.4 |
| 20260906100330 | 66 | 123 | 0.9 | 2.6 | 0.00 | 0.00 | 0.00 | 95 | 1019.4 |
| 20260906095825 | 66 | 123 | 0.0 | 1.7 | 0.00 | 0.00 | 0.00 | 95 | 1019.4 |
| 20260906095321 | 67 | 123 | 0.0 | 0.9 | 0.00 | 0.00 | 0.00 | 94 | 1019.4 |
| 20260906094820 | 67 | 123 | 0.9 | 2.6 | 0.00 | 0.00 | 0.00 | 94 | 1019.4 |
| 20260906094315 | 67 | 123 | 0.9 | 2.6 | 0.00 | 0.00 | 0.00 | 94 | 1019.1 |
| 20260906093811 | 67 | 123 | 0.9 | 1.7 | 0.00 | 0.00 | 0.00 | 94 | 1019.1 |
| 20260906093306 | 67 | 123 | 0.9 | 2.6 | 0.00 | 0.00 | 0.00 | 94 | 1019.1 |
| 20260906092755 | 67 | 123 | 0.9 | 2.6 | 0.00 | 0.00 | 0.00 | 94 | 1019.4 |
| 20260906092250 | 67 | 123 | 0.9 | 1.7 | 0.00 | 0.00 | 0.00 | 94 | 1019.1 |
| 20260906091746 | 67 | 123 | 0.0 | 1.7 | 0.00 | 0.00 | 0.00 | 94 | 1019.4 |
| 20260906091242 | 67 | 123 | 0.9 | 1.7 | 0.00 | 0.00 | 0.00 | 94 | 1019.1 |
| 20260906090738 | 67 | 123 | 1.7 | 3.5 | 0.00 | 0.00 | 0.00 | 94 | 1019.1 |
| 20260906090237 | 67 | 123 | 1.7 | 3.5 | 0.00 | 0.00 | 0.00 | 94 | 1019.1 |
| 20260906085736 | 67 | 127 | 1.7 | 2.6 | 0.00 | 0.00 | 0.00 | 94 | 1019.1 |
| 20260906085236 | 67 | 128 | 2.6 | 6.1 | 0.00 | 0.00 | 0.00 | 94 | 1019.1 |
| 20260906084731 | 68 | 134 | 3.5 | 7.8 | 0.00 | 0.00 | 0.00 | 94 | 1018.7 |
| 20260906084231 | 68 | 146 | 3.5 | 7.8 | 0.00 | 0.00 | 0.00 | 94 | 1018.7 |
| 20260906083725 | 68 | 125 | 2.6 | 5.2 | 0.00 | 0.00 | 0.00 | 94 | 1018.7 |
| 20260906083221 | 68 | 132 | 1.7 | 4.3 | 0.00 | 0.00 | 0.00 | 93 | 1018.7 |
| 20260906082716 | 68 | 136 | 1.7 | 3.5 | 0.00 | 0.00 | 0.00 | 93 | 1019.1 |
| 20260906082211 | 68 | 135 | 1.7 | 3.5 | 0.00 | 0.00 | 0.00 | 93 | 1019.1 |
| 20260906081707 | 68 | 134 | 1.7 | 3.5 | 0.00 | 0.00 | 0.00 | 93 | 1019.1 |
| 20260906081202 | 68 | 133 | 1.7 | 3.5 | 0.00 | 0.00 | 0.00 | 93 | 1019.1 |
| 20260906080659 | 68 | 123 | 2.6 | 3.5 | 0.00 | 0.00 | 0.00 | 93 | 1019.1 |
| 20260906080154 | 68 | 114 | 1.7 | 3.5 | 0.00 | 0.00 | 0.00 | 93 | 1019.1 |
| 20260906075654 | 68 | 113 | 1.7 | 3.5 | 0.00 | 0.00 | 0.00 | 93 | 1019.1 |
| 20260906075149 | 68 | 112 | 2.6 | 5.2 | 0.00 | 0.00 | 0.00 | 93 | 1019.1 |
| 20260906074644 | 68 | 111 | 3.5 | 6.1 | 0.00 | 0.00 | 0.00 | 93 | 1019.4 |
| 20260906074143 | 68 | 111 | 3.5 | 7.0 | 0.00 | 0.00 | 0.00 | 93 | 1019.4 |
| 20260906073638 | 68 | 117 | 3.5 | 7.0 | 0.00 | 0.00 | 0.00 | 93 | 1019.1 |
| 20260906073134 | 68 | 115 | 2.6 | 5.2 | 0.00 | 0.00 | 0.00 | 93 | 1019.1 |
| 20260906072628 | 68 | 161 | 2.6 | 4.3 | 0.00 | 0.00 | 0.00 | 92 | 1019.1 |
| 20260906072124 | 69 | 148 | 2.6 | 4.3 | 0.00 | 0.00 | 0.00 | 92 | 1019.1 |
| 20260906071620 | 69 | 151 | 2.6 | 5.2 | 0.00 | 0.00 | 0.00 | 92 | 1019.4 |
| 20260906071115 | 69 | 151 | 2.6 | 5.2 | 0.00 | 0.00 | 0.00 | 92 | 1019.4 |
| 20260906070612 | 69 | 138 | 1.7 | 3.5 | 0.00 | 0.00 | 0.00 | 92 | 1019.4 |
| 20260906070107 | 69 | 106 | 1.7 | 3.5 | 0.00 | 0.00 | 0.00 | 91 | 1019.4 |
| 20260906065606 | 69 | 105 | 1.7 | 3.5 | 0.00 | 0.00 | 0.00 | 91 | 1019.4 |
| 20260906065102 | 69 | 104 | 1.7 | 3.5 | 0.00 | 0.00 | 0.00 | 92 | 1019.4 |
| 20260906064558 | 69 | 102 | 1.7 | 3.5 | 0.00 | 0.00 | 0.00 | 92 | 1019.8 |
| 20260906064052 | 69 | 106 | 1.7 | 3.5 | 0.00 | 0.00 | 0.00 | 92 | 1019.4 |
| 20260906063547 | 69 | 132 | 0.9 | 2.6 | 0.00 | 0.00 | 0.00 | 92 | 1019.4 |
| 20260906063043 | 69 | 140 | 0.9 | 2.6 | 0.00 | 0.00 | 0.00 | 91 | 1019.4 |
| 20260906062539 | 69 | 140 | 1.7 | 4.3 | 0.00 | 0.00 | 0.00 | 91 | 1019.4 |
| 20260906062032 | 69 | 140 | 1.7 | 4.3 | 0.00 | 0.00 | 0.00 | 91 | 1019.4 |
| 20260906061529 | 69 | 153 | 0.9 | 2.6 | 0.00 | 0.00 | 0.00 | 91 | 1019.4 |
| 20260906061028 | 69 | 153 | 0.9 | 1.7 | 0.00 | 0.00 | 0.00 | 91 | 1019.4 |
| 20260906060525 | 70 | 153 | 0.9 | 1.7 | 0.00 | 0.00 | 0.00 | 91 | 1019.4 |
| 20260906060022 | 70 | 153 | 0.9 | 2.6 | 0.00 | 0.00 | 0.00 | 90 | 1019.4 |
| 20260906055517 | 70 | 153 | 0.9 | 2.6 | 0.00 | 0.00 | 0.00 | 90 | 1019.4 |
| 20260906055012 | 70 | 153 | 0.9 | 1.7 | 0.00 | 0.00 | 0.00 | 90 | 1019.4 |
| 20260906054507 | 70 | 153 | 0.9 | 4.3 | 0.00 | 0.00 | 0.00 | 90 | 1019.4 |
| 20260906054002 | 70 | 153 | 1.7 | 4.3 | 0.00 | 0.00 | 0.00 | 89 | 1019.4 |
| 20260906053459 | 70 | 153 | 1.7 | 2.6 | 0.00 | 0.00 | 0.00 | 89 | 1019.8 |
| 20260906052954 | 70 | 153 | 1.7 | 2.6 | 0.00 | 0.00 | 0.00 | 89 | 1019.4 |
| 20260906052450 | 70 | 153 | 1.7 | 2.6 | 0.00 | 0.00 | 0.00 | 89 | 1019.4 |
| 20260906051947 | 70 | 153 | 1.7 | 2.6 | 0.00 | 0.00 | 0.00 | 89 | 1019.4 |
| 20260906051442 | 70 | 153 | 1.7 | 2.6 | 0.00 | 0.00 | 0.00 | 89 | 1019.4 |
| 20260906050937 | 71 | 153 | 2.6 | 6.1 | 0.00 | 0.00 | 0.00 | 89 | 1019.4 |
| 20260906050437 | 71 | 156 | 3.5 | 7.8 | 0.00 | 0.00 | 0.00 | 89 | 1019.4 |
| 20260906045936 | 71 | 152 | 3.5 | 7.8 | 0.00 | 0.00 | 0.00 | 89 | 1019.1 |
| 20260906045435 | 71 | 161 | 2.6 | 5.2 | 0.00 | 0.00 | 0.00 | 89 | 1019.1 |
| 20260906044931 | 71 | 157 | 2.6 | 5.2 | 0.00 | 0.00 | 0.00 | 89 | 1019.1 |
| 20260906044426 | 70 | 155 | 1.7 | 4.3 | 0.00 | 0.00 | 0.00 | 89 | 1019.4 |
| 20260906043921 | 70 | 155 | 0.9 | 2.6 | 0.00 | 0.00 | 0.00 | 89 | 1019.1 |
| 20260906043417 | 70 | 155 | 1.7 | 4.3 | 0.00 | 0.00 | 0.00 | 89 | 1019.1 |
| 20260906042913 | 70 | 156 | 1.7 | 4.3 | 0.00 | 0.00 | 0.00 | 89 | 1019.1 |
| 20260906042411 | 70 | 156 | 1.7 | 4.3 | 0.00 | 0.00 | 0.00 | 89 | 1019.1 |
| 20260906041907 | 70 | 155 | 1.7 | 2.6 | 0.00 | 0.00 | 0.00 | 89 | 1019.1 |
| 20260906041403 | 71 | 155 | 1.7 | 4.3 | 0.00 | 0.00 | 0.00 | 89 | 1019.1 |
| 20260906040857 | 71 | 155 | 2.6 | 5.2 | 0.00 | 0.00 | 0.00 | 89 | 1019.1 |
| 20260906040352 | 70 | 156 | 2.6 | 5.2 | 0.00 | 0.00 | 0.00 | 89 | 1019.1 |
| 20260906035847 | 70 | 157 | 2.6 | 5.2 | 0.00 | 0.00 | 0.00 | 89 | 1019.1 |
| 20260906035343 | 70 | 157 | 3.5 | 6.1 | 0.00 | 0.00 | 0.00 | 89 | 1018.7 |
| 20260906034838 | 71 | 157 | 3.5 | 6.1 | 0.00 | 0.00 | 0.00 | 89 | 1018.7 |
| 20260906034333 | 71 | 158 | 3.5 | 5.2 | 0.00 | 0.00 | 0.00 | 89 | 1018.7 |
| 20260906033829 | 71 | 160 | 2.6 | 4.3 | 0.00 | 0.00 | 0.00 | 89 | 1018.7 |
| 20260906033328 | 71 | 160 | 0.9 | 3.5 | 0.00 | 0.00 | 0.00 | 88 | 1018.7 |
| 20260906032824 | 71 | 160 | 0.9 | 3.5 | 0.00 | 0.00 | 0.00 | 88 | 1019.1 |
| 20260906032320 | 71 | 160 | 0.0 | 0.9 | 0.00 | 0.00 | 0.00 | 88 | 1019.1 |
| 20260906031815 | 71 | 160 | 0.0 | 1.7 | 0.00 | 0.00 | 0.00 | 88 | 1019.1 |
| 20260906031311 | 72 | 160 | 0.9 | 1.7 | 0.00 | 0.00 | 0.00 | 87 | 1019.1 |
| 20260906030810 | 72 | 160 | 0.9 | 1.7 | 0.00 | 0.00 | 0.00 | 87 | 1018.7 |
| 20260906030305 | 72 | 160 | 0.9 | 1.7 | 0.00 | 0.00 | 0.00 | 87 | 1018.7 |
| 20260906025805 | 72 | 160 | 0.9 | 1.7 | 0.00 | 0.00 | 0.00 | 87 | 1018.7 |
| 20260906025259 | 72 | 160 | 0.0 | 1.7 | 0.00 | 0.00 | 0.00 | 87 | 1018.7 |
| 20260906024758 | 72 | 160 | 0.9 | 1.7 | 0.00 | 0.00 | 0.00 | 86 | 1018.7 |
| 20260906024257 | 72 | 160 | 0.9 | 3.5 | 0.00 | 0.00 | 0.00 | 86 | 1018.4 |
| 20260906023753 | 72 | 160 | 0.9 | 3.5 | 0.00 | 0.00 | 0.00 | 86 | 1018.4 |
| 20260906023248 | 73 | 160 | 0.9 | 1.7 | 0.00 | 0.00 | 0.00 | 86 | 1018.1 |
| 20260906022744 | 73 | 160 | 0.9 | 1.7 | 0.00 | 0.00 | 0.00 | 86 | 1018.1 |
| 20260906022239 | 73 | 160 | 1.7 | 3.5 | 0.00 | 0.00 | 0.00 | 85 | 1018.1 |
| 20260906021736 | 73 | 160 | 1.7 | 3.5 | 0.00 | 0.00 | 0.00 | 85 | 1017.6 |
| 20260906021234 | 74 | 160 | 1.7 | 3.5 | 0.00 | 0.00 | 0.00 | 85 | 1018.1 |
| 20260906020729 | 74 | 160 | 1.7 | 3.5 | 0.00 | 0.00 | 0.00 | 84 | 1017.6 |
| 20260906020223 | 74 | 160 | 1.7 | 3.5 | 0.00 | 0.00 | 0.00 | 84 | 1017.6 |
| 20260906015723 | 74 | 160 | 0.9 | 3.5 | 0.00 | 0.00 | 0.00 | 83 | 1017.6 |
| 20260906015222 | 75 | 160 | 0.9 | 3.5 | 0.00 | 0.00 | 0.00 | 83 | 1017.3 |
| 20260906014716 | 75 | 160 | 1.7 | 3.5 | 0.00 | 0.00 | 0.00 | 82 | 1017.3 |
| 20260906014212 | 75 | 160 | 1.7 | 5.2 | 0.00 | 0.00 | 0.00 | 82 | 1016.9 |
| 20260906013703 | 75 | 159 | 2.6 | 5.2 | 0.00 | 0.00 | 0.00 | 82 | 1016.9 |
| 20260906013203 | 75 | 159 | 3.5 | 5.2 | 0.00 | 0.00 | 0.00 | 81 | 1016.9 |
| 20260906012658 | 76 | 160 | 2.6 | 5.2 | 0.00 | 0.00 | 0.00 | 81 | 1016.9 |
| 20260906012157 | 76 | 159 | 3.5 | 6.1 | 0.00 | 0.00 | 0.00 | 81 | 1016.6 |
| 20260906011654 | 76 | 102 | 3.5 | 6.1 | 0.00 | 0.00 | 0.00 | 80 | 1016.6 |
| 20260906011148 | 76 | 120 | 2.6 | 6.1 | 0.00 | 0.00 | 0.00 | 80 | 1016.6 |
| 20260906010643 | 77 | 63 | 2.6 | 5.2 | 0.00 | 0.00 | 0.00 | 79 | 1016.6 |
| 20260906010140 | 77 | 105 | 2.6 | 5.2 | 0.00 | 0.00 | 0.00 | 79 | 1016.6 |
| 20260906005639 | 77 | 85 | 2.6 | 6.1 | 0.00 | 0.00 | 0.00 | 78 | 1016.6 |
| 20260906005138 | 77 | 112 | 2.6 | 6.1 | 0.00 | 0.00 | 0.00 | 78 | 1016.6 |
| 20260906004638 | 77 | 115 | 2.6 | 9.6 | 0.00 | 0.00 | 0.00 | 77 | 1016.6 |
| 20260906004133 | 78 | 99 | 3.5 | 9.6 | 0.00 | 0.00 | 0.00 | 77 | 1016.6 |
| 20260906003628 | 78 | 96 | 2.6 | 6.1 | 0.00 | 0.00 | 0.00 | 77 | 1016.6 |
| 20260906003124 | 78 | 113 | 3.5 | 7.0 | 0.00 | 0.00 | 0.00 | 76 | 1016.6 |
| 20260906002618 | 78 | 73 | 4.3 | 7.0 | 0.00 | 0.00 | 0.00 | 76 | 1016.6 |
| 20260906002114 | 78 | 107 | 4.3 | 8.7 | 0.00 | 0.00 | 0.00 | 75 | 1016.6 |
| 20260906001609 | 79 | 90 | 4.3 | 8.7 | 0.00 | 0.00 | 0.00 | 75 | 1016.6 |
| 20260906001109 | 79 | 92 | 4.3 | 9.6 | 0.00 | 0.00 | 0.00 | 74 | 1016.6 |
| 20260906000605 | 79 | 57 | 5.2 | 9.6 | 0.00 | 0.00 | 0.00 | 74 | 1016.6 |
| 20260906000100 | 79 | 61 | 5.2 | 9.6 | 0.00 | 0.00 | 0.00 | 74 | 1016.3 |
| 20260905235559 | 80 | 112 | 5.2 | 9.6 | 0.00 | 0.00 | 0.00 | 74 | 1016.6 |
| 20260905235054 | 80 | 113 | 5.2 | 10.4 | 0.00 | 0.00 | 0.00 | 74 | 1016.3 |
| 20260905234549 | 80 | 111 | 4.3 | 10.4 | 0.00 | 0.00 | 0.00 | 73 | 1016.6 |
| 20260905234045 | 80 | 107 | 4.3 | 7.8 | 0.00 | 0.00 | 0.00 | 73 | 1016.3 |
| 20260905233544 | 81 | 118 | 4.3 | 8.7 | 0.00 | 0.00 | 0.00 | 73 | 1016.6 |
| 20260905233044 | 81 | 71 | 4.3 | 8.7 | 0.00 | 0.00 | 0.00 | 72 | 1016.6 |
| 20260905232540 | 81 | 117 | 3.5 | 7.8 | 0.00 | 0.00 | 0.00 | 72 | 1016.3 |
| 20260905232035 | 81 | 110 | 4.3 | 9.6 | 0.00 | 0.00 | 0.00 | 71 | 1016.6 |
| 20260905231530 | 81 | 86 | 5.2 | 9.6 | 0.00 | 0.00 | 0.00 | 71 | 1016.6 |
| 20260905231027 | 81 | 53 | 5.2 | 9.6 | 0.00 | 0.00 | 0.00 | 71 | 1016.3 |
| 20260905230526 | 82 | 101 | 4.3 | 8.7 | 0.00 | 0.00 | 0.00 | 70 | 1016.3 |
| 20260905230024 | 82 | 105 | 3.5 | 9.6 | 0.00 | 0.00 | 0.00 | 70 | 1016.6 |
| 20260905225519 | 82 | 40 | 4.3 | 9.6 | 0.00 | 0.00 | 0.00 | 70 | 1016.6 |
| 20260905225015 | 82 | 59 | 5.2 | 9.6 | 0.00 | 0.00 | 0.00 | 69 | 1016.6 |
| 20260905224509 | 82 | 69 | 4.3 | 9.6 | 0.00 | 0.00 | 0.00 | 70 | 1016.3 |
| 20260905224009 | 82 | 102 | 5.2 | 8.7 | 0.00 | 0.00 | 0.00 | 69 | 1016.6 |
| 20260905223507 | 82 | 46 | 3.5 | 8.7 | 0.00 | 0.00 | 0.00 | 67 | 1016.6 |
| 20260905223002 | 82 | 41 | 3.5 | 6.1 | 0.00 | 0.00 | 0.00 | 68 | 1016.6 |
| 20260905222502 | 82 | 87 | 3.5 | 6.1 | 0.00 | 0.00 | 0.00 | 69 | 1016.6 |
| 20260905221957 | 82 | 72 | 3.5 | 6.1 | 0.00 | 0.00 | 0.00 | 70 | 1016.9 |
| 20260905221454 | 82 | 115 | 2.6 | 6.1 | 0.00 | 0.00 | 0.00 | 70 | 1016.6 |
| 20260905220949 | 82 | 95 | 1.7 | 5.2 | 0.00 | 0.00 | 0.00 | 70 | 1016.9 |
| 20260905220445 | 81 | 32 | 1.7 | 5.2 | 0.00 | 0.00 | 0.00 | 73 | 1016.9 |
| 20260905215944 | 81 | 286 | 1.7 | 5.2 | 0.00 | 0.00 | 0.00 | 74 | 1016.9 |
| 20260905215440 | 81 | 267 | 1.7 | 5.2 | 0.00 | 0.00 | 0.00 | 74 | 1016.9 |
| 20260905214937 | 81 | 216 | 1.7 | 3.5 | 0.00 | 0.00 | 0.00 | 73 | 1016.9 |
| 20260905214432 | 81 | 92 | 1.7 | 4.3 | 0.00 | 0.00 | 0.00 | 73 | 1016.9 |
| 20260905213932 | 82 | 157 | 1.7 | 4.3 | 0.00 | 0.00 | 0.00 | 71 | 1016.9 |
| 20260905213428 | 82 | 200 | 1.7 | 4.3 | 0.00 | 0.00 | 0.00 | 72 | 1016.9 |
| 20260905212923 | 82 | 217 | 1.7 | 3.5 | 0.00 | 0.00 | 0.00 | 72 | 1016.9 |
| 20260905212418 | 82 | 307 | 0.9 | 3.5 | 0.00 | 0.00 | 0.00 | 72 | 1017.3 |
| 20260905211917 | 82 | 351 | 1.7 | 4.3 | 0.00 | 0.00 | 0.00 | 71 | 1017.3 |
| 20260905211413 | 82 | 5 | 1.7 | 5.2 | 0.00 | 0.00 | 0.00 | 70 | 1016.9 |
| 20260905210909 | 82 | 355 | 1.7 | 5.2 | 0.00 | 0.00 | 0.00 | 72 | 1016.9 |
| 20260905210409 | 82 | 292 | 1.7 | 3.5 | 0.00 | 0.00 | 0.00 | 73 | 1016.9 |
| 20260905205908 | 81 | 236 | 1.7 | 4.3 | 0.00 | 0.00 | 0.00 | 73 | 1017.3 |
| 20260905205403 | 80 | 262 | 2.6 | 5.2 | 0.00 | 0.00 | 0.00 | 75 | 1017.3 |
| 20260905204902 | 80 | 279 | 1.7 | 5.2 | 0.00 | 0.00 | 0.00 | 75 | 1017.3 |
| 20260905204358 | 80 | 283 | 1.7 | 3.5 | 0.00 | 0.00 | 0.00 | 75 | 1017.3 |
| 20260905203857 | 80 | 344 | 0.9 | 3.5 | 0.00 | 0.00 | 0.00 | 75 | 1017.3 |
| 20260905203353 | 80 | 267 | 0.9 | 3.5 | 0.00 | 0.00 | 0.00 | 75 | 1017.3 |
| 20260905202848 | 80 | 248 | 1.7 | 3.5 | 0.00 | 0.00 | 0.00 | 75 | 1017.6 |
| 20260905202343 | 80 | 248 | 1.7 | 3.5 | 0.00 | 0.00 | 0.00 | 76 | 1017.3 |
| 20260905201839 | 79 | 248 | 2.6 | 6.1 | 0.00 | 0.00 | 0.00 | 78 | 1017.6 |
| 20260905201334 | 79 | 265 | 4.3 | 7.0 | 0.00 | 0.00 | 0.00 | 78 | 1017.6 |
| 20260905200834 | 79 | 287 | 4.3 | 7.8 | 0.00 | 0.00 | 0.00 | 77 | 1017.6 |
| 20260905200331 | 80 | 268 | 2.6 | 7.8 | 0.00 | 0.00 | 0.00 | 76 | 1018.1 |
| 20260905195828 | 80 | 248 | 1.7 | 6.1 | 0.00 | 0.00 | 0.00 | 75 | 1017.6 |
| 20260905195323 | 80 | 234 | 2.6 | 5.2 | 0.00 | 0.00 | 0.00 | 75 | 1017.6 |
| 20260905194819 | 80 | 288 | 3.5 | 6.1 | 0.00 | 0.00 | 0.00 | 74 | 1017.6 |
| 20260905194319 | 80 | 290 | 2.6 | 6.1 | 0.00 | 0.00 | 0.00 | 74 | 1017.6 |
| 20260905193818 | 80 | 291 | 2.6 | 6.1 | 0.00 | 0.00 | 0.00 | 75 | 1017.6 |
| 20260905193313 | 80 | 236 | 2.6 | 6.1 | 0.00 | 0.00 | 0.00 | 76 | 1017.6 |
| 20260905192808 | 79 | 268 | 1.7 | 5.2 | 0.00 | 0.00 | 0.00 | 76 | 1017.6 |
| 20260905192306 | 79 | 269 | 1.7 | 5.2 | 0.00 | 0.00 | 0.00 | 77 | 1017.6 |
| 20260905191804 | 79 | 315 | 0.9 | 3.5 | 0.00 | 0.00 | 0.00 | 77 | 1017.6 |
| 20260905191302 | 79 | 128 | 1.7 | 3.5 | 0.00 | 0.00 | 0.00 | 78 | 1017.6 |
| 20260905190801 | 79 | 128 | 1.7 | 3.5 | 0.00 | 0.00 | 0.00 | 77 | 1017.6 |
| 20260905190301 | 79 | 115 | 1.7 | 3.5 | 0.00 | 0.00 | 0.00 | 78 | 1017.6 |
| 20260905185800 | 79 | 126 | 1.7 | 3.5 | 0.00 | 0.00 | 0.00 | 78 | 1017.3 |
| 20260905185254 | 78 | 70 | 2.6 | 6.1 | 0.00 | 0.00 | 0.00 | 78 | 1017.6 |
| 20260905184748 | 79 | 68 | 2.6 | 6.1 | 0.00 | 0.00 | 0.00 | 77 | 1018.1 |
| 20260905184247 | 79 | 24 | 1.7 | 4.3 | 0.00 | 0.00 | 0.00 | 77 | 1018.1 |
| 20260905183741 | 79 | 129 | 0.9 | 2.6 | 0.00 | 0.00 | 0.00 | 77 | 1017.6 |
| 20260905183237 | 78 | 13 | 1.7 | 4.3 | 0.00 | 0.00 | 0.00 | 77 | 1018.1 |
| 20260905182736 | 78 | 14 | 1.7 | 4.3 | 0.00 | 0.00 | 0.00 | 78 | 1017.6 |
| 20260905182236 | 78 | 115 | 1.7 | 5.2 | 0.00 | 0.00 | 0.00 | 77 | 1018.1 |
| 20260905181732 | 78 | 125 | 1.7 | 5.2 | 0.00 | 0.00 | 0.00 | 78 | 1018.1 |
| 20260905181230 | 78 | 338 | 1.7 | 3.5 | 0.00 | 0.00 | 0.00 | 79 | 1018.1 |
| 20260905180725 | 78 | 30 | 1.7 | 3.5 | 0.00 | 0.00 | 0.00 | 79 | 1018.1 |